TimeEEST,TemperatureF,Dew PointF,Humidity,Sea Level PressureIn,VisibilityMPH,Wind Direction,Wind SpeedMPH,Gust SpeedMPH,PrecipitationIn,Events,Conditions,WindDirDegrees,DateUTC
12:20 AM,62.6,53.6,72,29.98,6.2,NNE,11.5,-,N/A,,Scattered Clouds,30,2013-05-07 21:20:00
12:50 AM,62.6,53.6,72,29.98,-9999.0,NE,12.7,-,N/A,,Clear,40,2013-05-07 21:50:00
1:20 AM,62.6,53.6,72,29.98,6.2,NE,13.8,-,N/A,,Scattered Clouds,40,2013-05-07 22:20:00
1:50 AM,60.8,53.6,77,29.98,6.2,NE,16.1,-,N/A,,Mostly Cloudy,40,2013-05-07 22:50:00
2:20 AM,60.8,53.6,77,29.98,6.2,NE,15.0,-,N/A,,Mostly Cloudy,40,2013-05-07 23:20:00
2:50 AM,60.8,53.6,77,29.98,6.2,NE,15.0,-,N/A,,Mostly Cloudy,40,2013-05-07 23:50:00
3:00 AM,61,54,71,29.97,6,NE,15.0,,,,Mostly Cloudy,40,2013-05-08 00:00:00
3:20 AM,60.8,53.6,77,29.95,6.2,NE,13.8,-,N/A,,Mostly Cloudy,40,2013-05-08 00:20:00
3:50 AM,60.8,53.6,77,29.95,6.2,NE,15.0,-,N/A,,Mostly Cloudy,40,2013-05-08 00:50:00
4:20 AM,60.8,53.6,77,29.95,6.2,NE,15.0,-,N/A,,Mostly Cloudy,40,2013-05-08 01:20:00
4:50 AM,60.8,53.6,77,29.95,6.2,NE,13.8,-,N/A,,Mostly Cloudy,40,2013-05-08 01:50:00
5:20 AM,60.8,53.6,77,29.95,6.2,NE,12.7,-,N/A,,Mostly Cloudy,50,2013-05-08 02:20:00
5:50 AM,60.8,53.6,77,29.95,6.2,NE,12.7,-,N/A,,Mostly Cloudy,40,2013-05-08 02:50:00
6:20 AM,60.8,53.6,77,29.95,6.2,NE,13.8,-,N/A,,Mostly Cloudy,40,2013-05-08 03:20:00
6:50 AM,60.8,53.6,77,29.95,6.2,NE,12.7,-,N/A,,Mostly Cloudy,50,2013-05-08 03:50:00
7:20 AM,60.8,53.6,77,29.95,6.2,NNE,15.0,-,N/A,,Mostly Cloudy,30,2013-05-08 04:20:00
7:50 AM,60.8,53.6,77,29.95,6.2,NE,16.1,-,N/A,,Mostly Cloudy,40,2013-05-08 04:50:00
8:20 AM,62.6,53.6,72,29.95,6.2,Variable,9.2,-,N/A,,Mostly Cloudy,0,2013-05-08 05:20:00
8:50 AM,62.6,53.6,72,29.95,6.2,NE,13.8,-,N/A,,Mostly Cloudy,40,2013-05-08 05:50:00
9:00 AM,62,54,66,29.96,6,NE,13.8,,,,Mostly Cloudy,40,2013-05-08 06:00:00
9:20 AM,62.6,53.6,72,29.98,6.2,NE,13.8,-,N/A,,Mostly Cloudy,40,2013-05-08 06:20:00
9:50 AM,62.6,53.6,72,29.95,6.2,NE,18.4,-,N/A,,Mostly Cloudy,40,2013-05-08 06:50:00
10:20 AM,62.6,53.6,72,29.95,6.2,NNE,17.3,-,N/A,,Mostly Cloudy,20,2013-05-08 07:20:00
10:50 AM,64.4,53.6,68,29.95,6.2,NNE,15.0,-,N/A,,Scattered Clouds,30,2013-05-08 07:50:00
11:20 AM,64.4,53.6,68,29.95,6.2,NNE,18.4,-,N/A,,Scattered Clouds,30,2013-05-08 08:20:00
11:50 AM,66.2,53.6,64,29.95,6.2,NE,17.3,-,N/A,,Scattered Clouds,50,2013-05-08 08:50:00
12:20 PM,66.2,53.6,64,29.95,6.2,NE,18.4,-,N/A,,Scattered Clouds,40,2013-05-08 09:20:00
12:50 PM,66.2,53.6,64,29.95,6.2,NNE,16.1,-,N/A,,Scattered Clouds,30,2013-05-08 09:50:00
1:20 PM,68.0,53.6,60,29.95,6.2,NNE,17.3,-,N/A,,Scattered Clouds,30,2013-05-08 10:20:00
1:50 PM,69.8,51.8,53,29.92,-9999.0,NNE,19.6,-,N/A,,Clear,20,2013-05-08 10:50:00
2:20 PM,71.6,51.8,50,29.92,-9999.0,NE,18.4,-,N/A,,Clear,40,2013-05-08 11:20:00
2:50 PM,68.0,51.8,56,29.92,-9999.0,NE,20.7,-,N/A,,Clear,40,2013-05-08 11:50:00
3:00 PM,68,51,44,29.92,6,NE,20.7,,,,Clear,40,2013-05-08 12:00:00
3:20 PM,68.0,51.8,56,29.89,-9999.0,NNE,20.7,-,N/A,,Clear,30,2013-05-08 12:20:00
3:50 PM,69.8,53.6,56,29.89,-9999.0,NNE,16.1,27.6,N/A,,Clear,30,2013-05-08 12:50:00
4:20 PM,68.0,51.8,56,29.89,-9999.0,NNE,19.6,-,N/A,,Clear,30,2013-05-08 13:20:00
4:50 PM,66.2,51.8,60,29.89,-9999.0,NE,20.7,-,N/A,,Clear,40,2013-05-08 13:50:00
5:20 PM,66.2,51.8,60,29.89,-9999.0,NNE,19.6,32.2,N/A,,Clear,30,2013-05-08 14:20:00
5:50 PM,66.2,51.8,60,29.89,-9999.0,NNE,17.3,-,N/A,,Clear,30,2013-05-08 14:50:00
6:20 PM,66.2,51.8,60,29.89,-9999.0,NNE,18.4,-,N/A,,Clear,30,2013-05-08 15:20:00
6:50 PM,64.4,51.8,64,29.89,-9999.0,NNE,20.7,-,N/A,,Clear,30,2013-05-08 15:50:00
7:20 PM,62.6,53.6,72,29.89,-9999.0,NNE,19.6,-,N/A,,Clear,30,2013-05-08 16:20:00
7:50 PM,64.4,53.6,68,29.89,-9999.0,NE,13.8,-,N/A,,Clear,40,2013-05-08 16:50:00
8:20 PM,64.4,53.6,68,29.92,-9999.0,NNE,16.1,-,N/A,,Clear,30,2013-05-08 17:20:00
8:50 PM,62.6,53.6,72,29.92,-9999.0,Variable,12.7,-,N/A,,Clear,0,2013-05-08 17:50:00
9:00 PM,62,52,62,29.94,6,NE,12.7,,,,,40,2013-05-08 18:00:00
9:20 PM,60.8,53.6,77,29.92,-9999.0,NE,15.0,-,N/A,,Clear,40,2013-05-08 18:20:00
9:50 PM,60.8,51.8,72,29.95,6.2,NE,15.0,-,N/A,,Partly Cloudy,40,2013-05-08 18:50:00
10:20 PM,60.8,51.8,72,29.95,6.2,NNE,16.1,-,N/A,,Partly Cloudy,20,2013-05-08 19:20:00
10:50 PM,59.0,51.8,77,29.98,6.2,NE,12.7,-,N/A,,Partly Cloudy,40,2013-05-08 19:50:00
11:20 PM,59.0,51.8,77,29.95,6.2,NNE,13.8,-,N/A,,Partly Cloudy,30,2013-05-08 20:20:00
11:50 PM,59.0,51.8,77,29.98,6.2,NNE,12.7,-,N/A,,Scattered Clouds,30,2013-05-08 20:50:00